Terminal Aerodrome Forecast
Issued by NWS Billings, MT

Home | Current Version | Previous Version | Graphics & Text | Print | Product List | Glossary On
Versions: 1 2 3 4 5 6 7 8 9 10 11 12 13 14 15 16 17 18 19 20 21 22 23 24 25 26 27 28 29 30
000
FTUS45 KBYZ 031732
TAFMLS
TAF
KMLS 031732Z 0318/0418 17007KT P6SM OVC080
     FM031900 24012KT P6SM BKN080
     FM032000 29016G22KT P6SM BKN080
     FM040000 29010KT P6SM BKN060
     FM040700 24007KT P6SM BKN050=

USA.gov is the U.S. government's official web portal to all federal, state and local government web resources and services.